Time,TemperatureF,DewpointF,PressureIn,WindDirection,WindDirectionDegrees,WindSpeedMPH,WindSpeedGustMPH,Humidity,HourlyPrecipIn,Conditions,Clouds,dailyrainin,SoftwareType,DateUTC
2013-01-08 00:12:00,31.4,-7.0,29.96,SW,232,19.0,21.0,19,0.00,,,0.00,weatherlink.com 1.10,2013-01-08 07:12:00,
2013-01-08 00:27:00,31.9,-10.0,29.95,SW,235,7.0,26.0,16,0.00,,,0.00,weatherlink.com 1.10,2013-01-08 07:27:00,
2013-01-08 00:42:00,32.5,-9.0,29.95,SSW,207,12.0,28.0,16,0.00,,,0.00,weatherlink.com 1.10,2013-01-08 07:42:00,
2013-01-08 00:57:00,32.2,-10.0,29.95,SW,223,23.0,30.0,16,0.00,,,0.00,weatherlink.com 1.10,2013-01-08 07:57:00,
2013-01-08 01:12:00,31.6,-8.0,29.94,SW,234,21.0,37.0,18,0.00,,,0.00,weatherlink.com 1.10,2013-01-08 08:12:00,
2013-01-08 01:27:00,31.2,-5.0,29.93,SSW,213,8.0,31.0,21,0.00,,,0.00,weatherlink.com 1.10,2013-01-08 08:27:00,
2013-01-08 01:42:00,31.5,0.0,29.98,West,275,8.0,24.0,26,0.00,,,0.00,weatherlink.com 1.10,2013-01-08 08:42:00,
2013-01-08 01:57:00,31.5,3.0,30.00,WNW,286,1.0,23.0,30,0.00,,,0.00,weatherlink.com 1.10,2013-01-08 08:57:00,
2013-01-08 02:12:00,31.5,2.0,30.01,SW,229,16.0,28.0,28,0.00,,,0.00,weatherlink.com 1.10,2013-01-08 09:12:00,
2013-01-08 02:28:00,31.2,0.0,29.99,West,274,19.0,31.0,26,0.00,,,0.00,weatherlink.com 1.10,2013-01-08 09:28:00,
2013-01-08 02:43:00,30.7,1.0,29.98,SSW,207,10.0,28.0,28,0.00,,,0.00,weatherlink.com 1.10,2013-01-08 09:43:00,
2013-01-08 02:58:00,30.3,2.0,29.97,WSW,252,16.0,29.0,30,0.00,,,0.00,weatherlink.com 1.10,2013-01-08 09:58:00,
2013-01-08 03:13:00,30.1,3.0,29.98,WSW,248,23.0,30.0,32,0.00,,,0.00,weatherlink.com 1.10,2013-01-08 10:13:00,
2013-01-08 03:28:00,30.0,5.0,29.96,WSW,238,11.0,32.0,34,0.00,,,0.00,weatherlink.com 1.10,2013-01-08 10:28:00,
2013-01-08 03:43:00,30.4,10.0,29.96,West,262,14.0,30.0,43,0.00,,,0.00,weatherlink.com 1.10,2013-01-08 10:43:00,
2013-01-08 03:58:00,30.3,10.0,29.93,WSW,249,21.0,38.0,42,0.00,,,0.00,weatherlink.com 1.10,2013-01-08 10:58:00,
2013-01-08 04:13:00,30.1,9.0,29.94,WSW,250,12.0,27.0,42,0.00,,,0.00,weatherlink.com 1.10,2013-01-08 11:13:00,
2013-01-08 04:28:00,30.1,9.0,29.96,WSW,252,13.0,34.0,42,0.00,,,0.00,weatherlink.com 1.10,2013-01-08 11:28:00,
2013-01-08 04:44:00,29.5,9.0,29.96,WSW,251,10.0,35.0,43,0.00,,,0.00,weatherlink.com 1.10,2013-01-08 11:44:00,
2013-01-08 04:59:00,29.1,9.0,29.96,SW,218,18.0,32.0,42,0.00,,,0.00,weatherlink.com 1.10,2013-01-08 11:59:00,
2013-01-08 05:14:00,29.3,9.0,29.98,WSW,241,10.0,31.0,43,0.00,,,0.00,weatherlink.com 1.10,2013-01-08 12:14:00,
2013-01-08 05:29:00,29.0,10.0,29.98,SSW,206,17.0,33.0,45,0.00,,,0.00,weatherlink.com 1.10,2013-01-08 12:29:00,
2013-01-08 05:44:00,29.4,10.0,29.97,West,265,10.0,36.0,44,0.00,,,0.00,weatherlink.com 1.10,2013-01-08 12:44:00,
2013-01-08 05:59:00,28.9,10.0,29.98,West,263,22.0,36.0,45,0.00,,,0.00,weatherlink.com 1.10,2013-01-08 12:59:00,
2013-01-08 06:14:00,29.2,10.0,29.99,WSW,245,11.0,34.0,45,0.00,,,0.00,weatherlink.com 1.10,2013-01-08 13:14:00,
2013-01-08 06:29:00,29.2,11.0,30.00,SW,236,11.0,36.0,46,0.00,,,0.00,weatherlink.com 1.10,2013-01-08 13:29:00,
2013-01-08 06:44:00,29.6,11.0,30.01,SW,227,12.0,41.0,47,0.00,,,0.00,weatherlink.com 1.10,2013-01-08 13:44:00,
2013-01-08 06:59:00,30.4,10.0,30.01,SW,235,10.0,32.0,43,0.00,,,0.00,weatherlink.com 1.10,2013-01-08 13:59:00,
2013-01-08 07:14:00,30.3,12.0,30.01,WSW,237,17.0,33.0,46,0.00,,,0.00,weatherlink.com 1.10,2013-01-08 14:14:00,
2013-01-08 07:29:00,28.5,12.0,30.03,West,275,25.0,47.0,51,0.00,,,0.00,weatherlink.com 1.10,2013-01-08 14:29:00,
2013-01-08 07:44:00,28.1,12.0,30.04,SW,235,20.0,37.0,51,0.00,,,0.00,weatherlink.com 1.10,2013-01-08 14:44:00,
2013-01-08 07:59:00,28.6,12.0,30.05,WSW,239,20.0,36.0,50,0.00,,,0.00,weatherlink.com 1.10,2013-01-08 14:59:00,
2013-01-08 08:14:00,29.2,12.0,30.06,WSW,252,17.0,32.0,49,0.00,,,0.00,weatherlink.com 1.10,2013-01-08 15:14:00,
2013-01-08 08:29:00,29.7,12.0,30.08,WSW,241,14.0,43.0,48,0.00,,,0.00,weatherlink.com 1.10,2013-01-08 15:29:00,
2013-01-08 08:44:00,29.3,12.0,30.09,WNW,282,29.0,33.0,48,0.00,,,0.00,weatherlink.com 1.10,2013-01-08 15:44:00,
2013-01-08 08:59:00,29.0,12.0,30.14,West,269,9.0,32.0,50,0.00,,,0.00,weatherlink.com 1.10,2013-01-08 15:59:00,
2013-01-08 09:14:00,29.4,13.0,30.13,WSW,250,5.0,18.0,51,0.00,,,0.00,weatherlink.com 1.10,2013-01-08 16:14:00,
2013-01-08 09:29:00,31.1,13.0,30.14,SSW,210,7.0,22.0,48,0.00,,,0.00,weatherlink.com 1.10,2013-01-08 16:29:00,
2013-01-08 09:44:00,31.5,13.0,30.14,NW,306,3.0,22.0,47,0.00,,,0.00,weatherlink.com 1.10,2013-01-08 16:44:00,
2013-01-08 09:59:00,32.2,13.0,30.15,WSW,252,8.0,22.0,46,0.00,,,0.00,weatherlink.com 1.10,2013-01-08 16:59:00,
2013-01-08 10:14:00,30.8,14.0,30.14,WSW,238,13.0,23.0,51,0.00,,,0.00,weatherlink.com 1.10,2013-01-08 17:14:00,
2013-01-08 10:30:00,31.0,15.0,30.15,SSW,211,11.0,16.0,51,0.00,,,0.00,weatherlink.com 1.10,2013-01-08 17:30:00,
2013-01-08 10:45:00,31.7,15.0,30.15,West,267,11.0,20.0,51,0.00,,,0.00,weatherlink.com 1.10,2013-01-08 17:45:00,
2013-01-08 11:00:00,31.7,15.0,30.14,WSW,246,13.0,25.0,51,0.00,,,0.00,weatherlink.com 1.10,2013-01-08 18:00:00,
2013-01-08 11:15:00,31.9,15.0,30.13,West,261,2.0,23.0,51,0.00,,,0.00,weatherlink.com 1.10,2013-01-08 18:15:00,
2013-01-08 11:30:00,32.7,16.0,30.13,SSW,209,3.0,22.0,50,0.00,,,0.00,weatherlink.com 1.10,2013-01-08 18:30:00,
2013-01-08 11:45:00,32.8,15.0,30.13,SW,232,9.0,15.0,49,0.00,,,0.00,weatherlink.com 1.10,2013-01-08 18:45:00,
2013-01-08 12:00:00,32.2,15.0,30.14,WNW,288,1.0,14.0,50,0.00,,,0.00,weatherlink.com 1.10,2013-01-08 19:00:00,
2013-01-08 12:15:00,32.3,15.0,30.16,West,274,3.0,12.0,50,0.00,,,0.00,weatherlink.com 1.10,2013-01-08 19:15:00,
2013-01-08 12:30:00,31.5,15.0,30.17,WSW,237,13.0,22.0,51,0.00,,,0.00,weatherlink.com 1.10,2013-01-08 19:30:00,
2013-01-08 12:45:00,31.2,15.0,30.18,SSW,208,7.0,21.0,51,0.00,,,0.00,weatherlink.com 1.10,2013-01-08 19:45:00,
2013-01-08 13:00:00,31.1,15.0,30.17,SE,128,5.0,22.0,52,0.00,,,0.00,weatherlink.com 1.10,2013-01-08 20:00:00,
2013-01-08 13:15:00,31.7,15.0,30.17,NW,311,2.0,10.0,50,0.00,,,0.00,weatherlink.com 1.10,2013-01-08 20:15:00,
2013-01-08 13:30:00,32.2,15.0,30.17,SW,215,0.0,18.0,50,0.00,,,0.00,weatherlink.com 1.10,2013-01-08 20:30:00,
2013-01-08 13:45:00,32.3,15.0,30.18,South,182,9.0,22.0,50,0.00,,,0.00,weatherlink.com 1.10,2013-01-08 20:45:00,
2013-01-08 14:01:00,32.2,15.0,30.18,WNW,303,8.0,25.0,50,0.00,,,0.00,weatherlink.com 1.10,2013-01-08 21:01:00,
2013-01-08 14:16:00,32.1,16.0,30.19,WSW,242,24.0,26.0,51,0.00,,,0.00,weatherlink.com 1.10,2013-01-08 21:16:00,
2013-01-08 14:31:00,32.0,16.0,30.21,SW,231,9.0,25.0,51,0.00,,,0.00,weatherlink.com 1.10,2013-01-08 21:31:00,
2013-01-08 14:46:00,31.7,15.0,30.21,SW,231,19.0,27.0,51,0.00,,,0.00,weatherlink.com 1.10,2013-01-08 21:46:00,
2013-01-08 15:01:00,31.3,15.0,30.21,SW,229,21.0,27.0,51,0.00,,,0.00,weatherlink.com 1.10,2013-01-08 22:01:00,
2013-01-08 15:16:00,31.3,15.0,30.23,WSW,249,21.0,29.0,51,0.00,,,0.00,weatherlink.com 1.10,2013-01-08 22:16:00,
2013-01-08 15:31:00,31.1,15.0,30.25,WSW,244,10.0,24.0,52,0.00,,,0.00,weatherlink.com 1.10,2013-01-08 22:31:00,
2013-01-08 15:46:00,30.9,15.0,30.25,WSW,243,7.0,23.0,52,0.00,,,0.00,weatherlink.com 1.10,2013-01-08 22:46:00,
2013-01-08 16:01:00,30.8,14.0,30.27,WSW,240,17.0,28.0,51,0.00,,,0.00,weatherlink.com 1.10,2013-01-08 23:01:00,
2013-01-08 16:16:00,30.7,14.0,30.27,SW,219,12.0,30.0,51,0.00,,,0.00,weatherlink.com 1.10,2013-01-08 23:16:00,
2013-01-08 16:31:00,30.3,14.0,30.30,WSW,240,11.0,23.0,51,0.00,,,0.00,weatherlink.com 1.10,2013-01-08 23:31:00,
2013-01-08 16:46:00,30.1,14.0,30.31,WSW,257,9.0,22.0,51,0.00,,,0.00,weatherlink.com 1.10,2013-01-08 23:46:00,
2013-01-08 17:01:00,29.9,13.0,30.32,SW,225,13.0,24.0,50,0.00,,,0.00,weatherlink.com 1.10,2013-01-09 00:01:00,
2013-01-08 17:16:00,29.8,13.0,30.34,WSW,241,19.0,23.0,50,0.00,,,0.00,weatherlink.com 1.10,2013-01-09 00:16:00,
2013-01-08 17:32:00,29.7,13.0,30.34,West,272,9.0,24.0,51,0.00,,,0.00,weatherlink.com 1.10,2013-01-09 00:32:00,
2013-01-08 17:47:00,30.1,12.0,30.33,West,265,11.0,26.0,48,0.00,,,0.00,weatherlink.com 1.10,2013-01-09 00:47:00,
2013-01-08 18:02:00,31.2,11.0,30.34,SW,229,14.0,26.0,44,0.00,,,0.00,weatherlink.com 1.10,2013-01-09 01:02:00,
2013-01-08 18:17:00,31.1,12.0,30.34,WNW,297,17.0,26.0,45,0.00,,,0.00,weatherlink.com 1.10,2013-01-09 01:17:00,
2013-01-08 18:32:00,31.2,11.0,30.35,SW,230,10.0,24.0,43,0.00,,,0.00,weatherlink.com 1.10,2013-01-09 01:32:00,
2013-01-08 18:47:00,31.2,11.0,30.36,WSW,238,10.0,23.0,43,0.00,,,0.00,weatherlink.com 1.10,2013-01-09 01:47:00,
2013-01-08 19:02:00,30.6,12.0,30.35,WSW,253,9.0,23.0,46,0.00,,,0.00,weatherlink.com 1.10,2013-01-09 02:02:00,
2013-01-08 19:17:00,30.9,10.0,30.36,West,267,5.0,19.0,42,0.00,,,0.00,weatherlink.com 1.10,2013-01-09 02:17:00,
2013-01-08 19:32:00,31.5,10.0,30.36,WSW,246,8.0,17.0,40,0.00,,,0.00,weatherlink.com 1.10,2013-01-09 02:32:00,
2013-01-08 19:47:00,32.1,9.0,30.37,WSW,244,10.0,24.0,38,0.00,,,0.00,weatherlink.com 1.10,2013-01-09 02:47:00,
2013-01-08 20:02:00,32.4,8.0,30.38,WNW,294,7.0,24.0,36,0.00,,,0.00,weatherlink.com 1.10,2013-01-09 03:02:00,
2013-01-08 20:18:00,32.5,8.0,30.39,WSW,250,8.0,18.0,36,0.00,,,0.00,weatherlink.com 1.10,2013-01-09 03:18:00,
2013-01-08 20:33:00,32.3,9.0,30.41,West,259,7.0,21.0,37,0.00,,,0.00,weatherlink.com 1.10,2013-01-09 03:33:00,
2013-01-08 20:48:00,31.8,9.0,30.42,WSW,242,12.0,20.0,38,0.00,,,0.00,weatherlink.com 1.10,2013-01-09 03:48:00,
2013-01-08 21:03:00,31.4,9.0,30.43,WSW,242,14.0,21.0,39,0.00,,,0.00,weatherlink.com 1.10,2013-01-09 04:03:00,
2013-01-08 21:18:00,31.0,10.0,30.43,West,265,5.0,20.0,41,0.00,,,0.00,weatherlink.com 1.10,2013-01-09 04:18:00,
2013-01-08 21:33:00,31.0,9.0,30.43,WSW,244,6.0,21.0,40,0.00,,,0.00,weatherlink.com 1.10,2013-01-09 04:33:00,
2013-01-08 21:48:00,31.0,10.0,30.45,SW,225,17.0,20.0,41,0.00,,,0.00,weatherlink.com 1.10,2013-01-09 04:48:00,
2013-01-08 22:03:00,30.8,10.0,30.45,WSW,255,14.0,20.0,42,0.00,,,0.00,weatherlink.com 1.10,2013-01-09 05:03:00,
2013-01-08 22:18:00,30.8,10.0,30.45,WSW,244,15.0,23.0,42,0.00,,,0.00,weatherlink.com 1.10,2013-01-09 05:18:00,
2013-01-08 22:33:00,31.0,10.0,30.46,West,277,7.0,21.0,42,0.00,,,0.00,weatherlink.com 1.10,2013-01-09 05:33:00,
2013-01-08 22:49:00,31.1,10.0,30.46,West,271,11.0,22.0,42,0.00,,,0.00,weatherlink.com 1.10,2013-01-09 05:49:00,
2013-01-08 23:04:00,31.3,10.0,30.46,WSW,243,14.0,24.0,41,0.00,,,0.00,weatherlink.com 1.10,2013-01-09 06:04:00,
2013-01-08 23:19:00,31.7,10.0,30.46,SW,230,6.0,26.0,40,0.00,,,0.00,weatherlink.com 1.10,2013-01-09 06:19:00,
2013-01-08 23:34:00,32.3,10.0,30.46,WSW,254,9.0,24.0,39,0.00,,,0.00,weatherlink.com 1.10,2013-01-09 06:34:00,
2013-01-08 23:49:00,32.7,10.0,30.46,West,267,19.0,24.0,39,0.00,,,0.00,weatherlink.com 1.10,2013-01-09 06:49:00,